STARLINK-32253, 60733

Orbit data source: Space-Track

STARLINK-32253, 60733 is a payload satellite owned by SpaceX/Seattle (US) in LEO that was launched on Wed, 28 Aug 2024 UTC via an FALCON 9 launch vehicle from the Air Force Eastern Test Range (AFETR). Payloads include a variety of satellites, spacecraft, and rockets equipped with specific instruments for various scientific and technological missions. These include communications satellites like Starlink; space stations such as the ISS; scientific satellites like the Hubble; Earth observation satellites from companies like Planet Labs, Umbra, and HawkEye 360; GPS; miniature CubeSats for education and research; and military/defense satellites.

Loading next visibility...
STARLINK-32253 details
Identifier
60733, 2024-152P
Orbit
LEO
Last TLE update17 hours ago
Origin
Flag of USSpaceX/Seattle (US)
ManufacturerSpaceX/Seattle
MissionOperational spacecraft
Bus & MotorSTARLINK V2M, Unknown motor
Mass730 kg wet, ~700 kg dry
Launch date (UTC)
2024-08-28 (4 months ago)
Launch vehicle
FALCON 9
Launch site
Air Force Eastern Test Range (AFETR)
Object type
Payload
Rocket body
Debris
Shape & HBRUnknown
Radar Cross SectionLarge (>1 m²)

Expand to show TLE details & history

TLE from 17 hours ago
0 STARLINK-32253
1 60733U 24152P   24355.88736179  .00002104  00000-0  83168-4 0  9998
2 60733  53.1593 169.7737 0001207  80.2970 279.8167 15.30195946 18858
Epoch: 2024-12-20T21:17Z
Definitive object data (Epoch: 2024-12-20T21:17:48.058Z)
Latitude-0.00003°
Longitude120.37701°
Altitude475.986 km
Speed7.629 km/s
True Right ascension11h 19m 05s
True Declination0° 00' 00"
Sunlit
Object was in daylight at TLE epoch
Visualization TLE readout
Latitude-53.30401°
Longitude28.42668°
Altitude494.576 km
Speed7.617 km/s
Apparent Right ascension02h 59m 42s
Apparent Declination-50° 43' 55"
Sunlit
Object is in daylight
Visualization observer readout
Local Sidereal Time13:11:07
Azimuth231.176° WSW
Elevation-68.243°
Doppler factor1
Orbital elements
Apogee altitude476.311 km
Perigee altitude474.656 km
Semi-major axis6,853.621 km
Eccentricity0.0001207
Inclination53.1593°
RAAN169.7737°
Arg. of periapsis80.297°
True anomaly279.80307°
Mean anomaly279.8167°
Eccentric anomaly279.80989°
Mean motion3.82528 °/min
BSTAR0.000083168
Orbital period94.11 mins
Loading maneuver chart data...
Loading historical data...
Loading historical data...
Loading historical data...
Loading historical data...
Loading historical data...
Loading historical data...
Loading historical data...

STARLINK-32253 Visibility forecast

Observer location: undefined°, undefined

Span
Click to sort rows by Start time (UTC) header in descending order
Start Az.
Max El. time (UTC)
Max El. Az.
Max El.
End time (UTC)
End Az.
7 mins2024-12-21 14:43:02.772Z234.607° WSW2024-12-21 14:47:02.772Z20.597° NNE41.815°2024-12-21 14:50:02.772Z47.102° ENE
4 mins2024-12-21 19:41:02.772Z340.717° N2024-12-21 19:43:02.772Z16.339° NNE17.258°2024-12-21 19:45:02.772Z55.998° ENE
6 mins2024-12-21 21:19:02.772Z310.484° NW2024-12-21 21:22:02.772Z127.017° SE43.175°2024-12-21 21:25:02.772Z130.54° SE
|